Time,TemperatureF,DewpointF,PressureIn,WindDirection,WindDirectionDegrees,WindSpeedMPH,WindSpeedGustMPH,Humidity,HourlyPrecipIn,Conditions,Clouds,dailyrainin,SoftwareType,DateUTC
2013-06-11 00:04:00,61.0,55.8,28.97,North,356,4.9,4.9,83,0.24,,---,0.04,VWS V13.01,2013-06-11 04:04:00,
2013-06-11 00:09:00,61.0,55.8,28.97,North,356,4.9,4.9,83,0.16,,---,0.04,VWS V13.01,2013-06-11 04:09:00,
2013-06-11 00:14:00,61.0,55.8,28.97,North,356,4.9,4.9,83,0.04,,---,0.04,VWS V13.01,2013-06-11 04:14:00,
2013-06-11 00:19:00,61.0,55.8,28.94,North,356,4.9,4.9,83,0.04,,---,0.04,VWS V13.01,2013-06-11 04:19:00,
2013-06-11 00:24:00,61.0,55.8,28.94,North,356,4.9,4.9,83,0.04,,---,0.04,VWS V13.01,2013-06-11 04:24:00,
2013-06-11 00:29:00,61.0,55.8,28.94,North,356,4.9,4.9,83,0.04,,---,0.04,VWS V13.01,2013-06-11 04:29:00,
2013-06-11 00:39:00,60.8,56.3,28.94,North,356,4.9,4.9,85,0.12,,---,0.12,VWS V13.01,2013-06-11 04:39:00,
2013-06-11 00:44:00,60.8,56.6,28.94,North,356,4.9,4.9,86,0.12,,---,0.12,VWS V13.01,2013-06-11 04:44:00,
2013-06-11 00:49:00,61.0,56.8,28.91,North,356,4.9,4.9,86,0.12,,---,0.12,VWS V13.01,2013-06-11 04:49:00,
2013-06-11 00:54:00,60.8,56.6,28.91,North,356,4.9,4.9,86,0.12,,---,0.12,VWS V13.01,2013-06-11 04:54:00,
2013-06-11 00:59:00,60.8,56.3,28.91,North,356,4.9,4.9,85,0.12,,---,0.12,VWS V13.01,2013-06-11 04:59:00,
2013-06-11 01:04:00,61.0,56.8,28.91,North,356,4.9,4.9,86,0.12,,---,0.12,VWS V13.01,2013-06-11 05:04:00,
2013-06-11 01:09:00,61.0,56.8,28.91,North,356,4.9,4.9,86,0.12,,---,0.16,VWS V13.01,2013-06-11 05:09:00,
2013-06-11 01:14:00,61.0,57.1,28.91,North,356,4.9,4.9,87,0.12,,---,0.16,VWS V13.01,2013-06-11 05:14:00,
2013-06-11 01:19:00,61.0,56.8,28.88,North,356,4.9,4.9,86,0.12,,---,0.16,VWS V13.01,2013-06-11 05:19:00,
2013-06-11 01:24:00,61.0,56.8,28.88,North,356,4.9,4.9,86,0.12,,---,0.16,VWS V13.01,2013-06-11 05:24:00,
2013-06-11 01:29:00,61.0,56.8,28.88,North,356,4.9,4.9,86,0.16,,---,0.20,VWS V13.01,2013-06-11 05:29:00,
2013-06-11 01:34:00,61.0,56.8,28.88,North,356,4.9,4.9,86,0.16,,---,0.20,VWS V13.01,2013-06-11 05:34:00,
2013-06-11 01:44:00,61.0,56.8,28.88,North,356,4.9,4.9,86,0.12,,---,0.24,VWS V13.01,2013-06-11 05:44:00,
2013-06-11 01:54:00,61.3,57.1,28.85,North,356,4.9,4.9,86,0.12,,---,0.24,VWS V13.01,2013-06-11 05:54:00,
2013-06-11 01:59:00,61.2,57.3,28.85,North,356,4.9,4.9,87,0.12,,---,0.24,VWS V13.01,2013-06-11 05:59:00,
2013-06-11 02:04:00,61.2,57.0,28.85,North,356,4.9,4.9,86,0.16,,---,0.28,VWS V13.01,2013-06-11 06:04:00,
2013-06-11 02:09:00,61.3,57.1,28.85,North,356,4.9,4.9,86,0.16,,---,0.28,VWS V13.01,2013-06-11 06:09:00,
2013-06-11 02:14:00,61.3,57.4,28.85,North,356,4.9,4.9,87,0.12,,---,0.28,VWS V13.01,2013-06-11 06:14:00,
2013-06-11 02:19:00,61.3,57.4,28.85,North,356,4.9,4.9,87,0.12,,---,0.28,VWS V13.01,2013-06-11 06:19:00,
2013-06-11 02:24:00,61.3,57.4,28.85,North,356,4.9,4.9,87,0.12,,---,0.28,VWS V13.01,2013-06-11 06:24:00,
2013-06-11 02:29:00,61.5,57.6,28.85,North,356,4.9,4.9,87,0.12,,---,0.28,VWS V13.01,2013-06-11 06:29:00,
2013-06-11 02:34:00,61.3,57.4,28.85,North,356,4.9,4.9,87,0.08,,---,0.28,VWS V13.01,2013-06-11 06:34:00,
2013-06-11 02:44:00,61.5,57.6,28.85,North,356,4.9,4.9,87,0.04,,---,0.28,VWS V13.01,2013-06-11 06:44:00,
2013-06-11 02:49:00,61.5,57.6,28.85,North,356,4.9,4.9,87,0.04,,---,0.28,VWS V13.01,2013-06-11 06:49:00,
2013-06-11 02:54:00,61.5,57.9,28.85,North,356,4.9,4.9,88,0.04,,---,0.28,VWS V13.01,2013-06-11 06:54:00,
2013-06-11 02:59:00,61.5,57.6,28.85,North,356,4.9,4.9,87,0.04,,---,0.28,VWS V13.01,2013-06-11 06:59:00,
2013-06-11 03:04:00,61.5,57.6,28.85,North,356,4.9,4.9,87,0.04,,---,0.28,VWS V13.01,2013-06-11 07:04:00,
2013-06-11 03:09:00,61.3,57.8,28.85,North,356,4.9,4.9,88,0.00,,---,0.28,VWS V13.01,2013-06-11 07:09:00,
2013-06-11 03:14:00,61.3,57.8,28.85,North,356,4.9,4.9,88,0.00,,---,0.28,VWS V13.01,2013-06-11 07:14:00,
2013-06-11 03:19:00,61.5,57.9,28.82,North,356,4.9,4.9,88,0.00,,---,0.28,VWS V13.01,2013-06-11 07:19:00,
2013-06-11 03:24:00,61.5,57.9,28.82,North,356,4.9,4.9,88,0.00,,---,0.28,VWS V13.01,2013-06-11 07:24:00,
2013-06-11 03:29:00,61.5,57.9,28.82,North,356,4.9,4.9,88,0.00,,---,0.28,VWS V13.01,2013-06-11 07:29:00,
2013-06-11 03:34:00,61.5,58.2,28.82,North,356,4.9,4.9,89,0.00,,---,0.28,VWS V13.01,2013-06-11 07:34:00,
2013-06-11 03:39:00,61.5,58.2,28.82,North,356,4.9,4.9,89,0.00,,---,0.28,VWS V13.01,2013-06-11 07:39:00,
2013-06-11 03:44:00,61.5,58.2,28.82,North,356,4.9,4.9,89,0.00,,---,0.28,VWS V13.01,2013-06-11 07:44:00,
2013-06-11 03:49:00,61.5,58.2,28.82,North,356,4.9,4.9,89,0.00,,---,0.28,VWS V13.01,2013-06-11 07:49:00,
2013-06-11 03:54:00,61.5,58.2,28.82,North,356,4.9,4.9,89,0.00,,---,0.28,VWS V13.01,2013-06-11 07:54:00,
2013-06-11 03:59:00,61.5,58.2,28.82,North,356,4.9,4.9,89,0.00,,---,0.28,VWS V13.01,2013-06-11 07:59:00,
2013-06-11 04:04:00,61.5,58.2,28.82,North,356,4.9,4.9,89,0.00,,---,0.28,VWS V13.01,2013-06-11 08:04:00,
2013-06-11 04:09:00,61.5,58.2,28.82,North,356,4.9,4.9,89,0.04,,---,0.31,VWS V13.01,2013-06-11 08:09:00,
2013-06-11 04:14:00,61.7,58.4,28.82,North,356,4.9,4.9,89,0.04,,---,0.31,VWS V13.01,2013-06-11 08:14:00,
2013-06-11 04:19:00,61.7,58.4,28.79,North,356,4.9,4.9,89,0.04,,---,0.31,VWS V13.01,2013-06-11 08:19:00,
2013-06-11 04:24:00,61.7,58.4,28.79,North,356,4.9,4.9,89,0.04,,---,0.31,VWS V13.01,2013-06-11 08:24:00,
2013-06-11 04:29:00,61.7,58.4,28.79,North,356,4.9,4.9,89,0.04,,---,0.31,VWS V13.01,2013-06-11 08:29:00,
2013-06-11 04:34:00,61.7,58.4,28.79,North,356,4.9,4.9,89,0.04,,---,0.31,VWS V13.01,2013-06-11 08:34:00,
2013-06-11 04:39:00,61.7,58.4,28.79,North,356,4.9,4.9,89,0.04,,---,0.31,VWS V13.01,2013-06-11 08:39:00,
2013-06-11 04:44:00,61.7,58.4,28.79,North,356,4.9,4.9,89,0.04,,---,0.31,VWS V13.01,2013-06-11 08:44:00,
2013-06-11 04:49:00,61.9,58.6,28.79,North,356,4.9,4.9,89,0.04,,---,0.31,VWS V13.01,2013-06-11 08:49:00,
2013-06-11 04:54:00,61.9,58.6,28.79,North,356,4.9,4.9,89,0.04,,---,0.31,VWS V13.01,2013-06-11 08:54:00,
2013-06-11 04:59:00,61.9,58.6,28.79,North,356,4.9,4.9,89,0.04,,---,0.31,VWS V13.01,2013-06-11 08:59:00,
2013-06-11 05:04:00,61.9,58.6,28.79,North,356,4.9,4.9,89,0.04,,---,0.31,VWS V13.01,2013-06-11 09:04:00,
2013-06-11 05:14:00,62.1,58.8,28.79,North,356,4.9,4.9,89,0.00,,---,0.31,VWS V13.01,2013-06-11 09:14:00,
2013-06-11 05:19:00,62.1,58.8,28.79,North,356,4.9,4.9,89,0.00,,---,0.31,VWS V13.01,2013-06-11 09:19:00,
2013-06-11 05:24:00,62.1,58.8,28.79,North,356,4.9,4.9,89,0.00,,---,0.31,VWS V13.01,2013-06-11 09:24:00,
2013-06-11 05:29:00,62.1,58.8,28.79,North,356,4.9,4.9,89,0.00,,---,0.31,VWS V13.01,2013-06-11 09:29:00,
2013-06-11 05:34:00,62.1,58.8,28.79,North,356,4.9,4.9,89,0.00,,---,0.31,VWS V13.01,2013-06-11 09:34:00,
2013-06-11 05:39:00,62.1,58.8,28.79,North,356,4.9,4.9,89,0.00,,---,0.31,VWS V13.01,2013-06-11 09:39:00,
2013-06-11 05:44:00,62.1,58.8,28.79,North,356,4.9,4.9,89,0.00,,---,0.31,VWS V13.01,2013-06-11 09:44:00,
2013-06-11 05:49:00,62.1,58.8,28.79,North,356,4.9,4.9,89,0.00,,---,0.31,VWS V13.01,2013-06-11 09:49:00,
2013-06-11 05:54:00,62.2,59.0,28.79,North,356,4.9,4.9,89,0.00,,---,0.31,VWS V13.01,2013-06-11 09:54:00,
2013-06-11 05:59:00,62.2,59.0,28.79,North,356,4.9,4.9,89,0.00,,---,0.31,VWS V13.01,2013-06-11 09:59:00,
2013-06-11 06:04:00,62.2,59.0,28.79,North,356,4.9,4.9,89,0.00,,---,0.31,VWS V13.01,2013-06-11 10:04:00,
2013-06-11 06:09:00,62.2,59.0,28.79,North,356,4.9,4.9,89,0.00,,---,0.31,VWS V13.01,2013-06-11 10:09:00,
2013-06-11 06:14:00,62.2,59.0,28.79,North,356,4.9,4.9,89,0.00,,---,0.31,VWS V13.01,2013-06-11 10:14:00,
2013-06-11 06:19:00,62.4,59.1,28.79,North,356,4.9,4.9,89,0.00,,---,0.31,VWS V13.01,2013-06-11 10:19:00,
2013-06-11 06:24:00,62.2,58.7,28.79,North,356,4.9,4.9,88,0.00,,---,0.31,VWS V13.01,2013-06-11 10:24:00,
2013-06-11 06:29:00,62.4,58.8,28.79,North,356,4.9,4.9,88,0.00,,---,0.31,VWS V13.01,2013-06-11 10:29:00,
2013-06-11 06:34:00,62.4,58.8,28.79,North,356,4.9,4.9,88,0.00,,---,0.31,VWS V13.01,2013-06-11 10:34:00,
2013-06-11 06:39:00,62.4,58.8,28.79,North,356,4.9,4.9,88,0.00,,---,0.31,VWS V13.01,2013-06-11 10:39:00,
2013-06-11 06:44:00,62.6,59.0,28.79,North,356,4.9,4.9,88,0.00,,---,0.31,VWS V13.01,2013-06-11 10:44:00,
2013-06-11 06:49:00,62.6,59.0,28.79,North,356,4.9,4.9,88,0.00,,---,0.31,VWS V13.01,2013-06-11 10:49:00,
2013-06-11 06:54:00,62.4,58.8,28.79,North,356,4.9,4.9,88,0.00,,---,0.31,VWS V13.01,2013-06-11 10:54:00,
2013-06-11 06:59:00,62.4,58.5,28.79,North,356,4.9,4.9,87,0.00,,---,0.31,VWS V13.01,2013-06-11 10:59:00,
2013-06-11 07:04:00,62.6,58.7,28.76,North,356,4.9,4.9,87,0.00,,---,0.31,VWS V13.01,2013-06-11 11:04:00,
2013-06-11 07:09:00,62.8,58.9,28.76,North,356,4.9,4.9,87,0.00,,---,0.31,VWS V13.01,2013-06-11 11:09:00,
2013-06-11 07:19:00,62.8,58.5,28.79,North,356,4.9,4.9,86,0.00,,---,0.31,VWS V13.01,2013-06-11 11:19:00,
2013-06-11 07:24:00,62.8,58.5,28.79,North,356,4.9,4.9,86,0.00,,---,0.31,VWS V13.01,2013-06-11 11:24:00,
2013-06-11 07:29:00,62.6,58.0,28.79,North,356,4.9,4.9,85,0.00,,---,0.31,VWS V13.01,2013-06-11 11:29:00,
2013-06-11 07:34:00,62.6,58.0,28.79,North,356,4.9,4.9,85,0.00,,---,0.31,VWS V13.01,2013-06-11 11:34:00,
2013-06-11 07:39:00,62.8,57.9,28.79,North,356,4.9,4.9,84,0.00,,---,0.31,VWS V13.01,2013-06-11 11:39:00,
2013-06-11 07:44:00,62.8,57.9,28.79,North,356,4.9,4.9,84,0.00,,---,0.31,VWS V13.01,2013-06-11 11:44:00,
2013-06-11 07:49:00,62.8,57.9,28.79,North,356,4.9,4.9,84,0.00,,---,0.31,VWS V13.01,2013-06-11 11:49:00,
2013-06-11 07:54:00,63.1,58.6,28.79,North,356,4.9,4.9,85,0.00,,---,0.31,VWS V13.01,2013-06-11 11:54:00,
2013-06-11 07:59:00,63.1,58.6,28.79,North,356,4.9,4.9,85,0.00,,---,0.31,VWS V13.01,2013-06-11 11:59:00,
2013-06-11 08:04:00,63.3,58.7,28.79,North,356,4.9,4.9,85,0.00,,---,0.31,VWS V13.01,2013-06-11 12:04:00,
2013-06-11 08:09:00,63.5,58.9,28.79,North,356,4.9,4.9,85,0.00,,---,0.31,VWS V13.01,2013-06-11 12:09:00,
2013-06-11 08:14:00,63.5,58.6,28.79,North,356,4.9,4.9,84,0.00,,---,0.31,VWS V13.01,2013-06-11 12:14:00,
2013-06-11 08:19:00,63.3,58.1,28.79,North,356,4.9,4.9,83,0.00,,---,0.31,VWS V13.01,2013-06-11 12:19:00,
2013-06-11 08:24:00,63.1,57.6,28.79,North,356,4.9,4.9,82,0.00,,---,0.31,VWS V13.01,2013-06-11 12:24:00,
2013-06-11 08:29:00,63.3,58.1,28.79,North,356,4.9,4.9,83,0.00,,---,0.31,VWS V13.01,2013-06-11 12:29:00,
2013-06-11 08:34:00,63.3,58.4,28.79,North,356,4.9,4.9,84,0.00,,---,0.31,VWS V13.01,2013-06-11 12:34:00,
2013-06-11 08:39:00,63.7,58.8,28.79,North,356,4.9,4.9,84,0.00,,---,0.31,VWS V13.01,2013-06-11 12:39:00,
2013-06-11 08:44:00,64.0,59.5,28.79,North,356,4.9,4.9,85,0.00,,---,0.31,VWS V13.01,2013-06-11 12:44:00,
2013-06-11 08:49:00,64.2,59.6,28.79,North,356,4.9,4.9,85,0.00,,---,0.31,VWS V13.01,2013-06-11 12:49:00,
2013-06-11 08:54:00,64.8,60.2,28.79,North,356,4.9,4.9,85,0.00,,---,0.31,VWS V13.01,2013-06-11 12:54:00,
2013-06-11 09:04:00,65.7,61.0,28.79,North,356,4.9,4.9,85,0.00,,---,0.31,VWS V13.01,2013-06-11 13:04:00,
2013-06-11 09:09:00,65.8,60.9,28.79,North,356,4.9,4.9,84,0.00,,---,0.31,VWS V13.01,2013-06-11 13:09:00,
2013-06-11 09:14:00,65.7,59.7,28.79,North,356,4.9,4.9,81,0.00,,---,0.31,VWS V13.01,2013-06-11 13:14:00,
2013-06-11 09:19:00,66.4,60.4,28.79,North,356,4.9,4.9,81,0.00,,---,0.31,VWS V13.01,2013-06-11 13:19:00,
2013-06-11 09:24:00,66.4,60.4,28.79,North,356,4.9,4.9,81,0.00,,---,0.31,VWS V13.01,2013-06-11 13:24:00,
2013-06-11 09:29:00,66.6,60.6,28.79,North,356,4.9,4.9,81,0.00,,---,0.31,VWS V13.01,2013-06-11 13:29:00,
2013-06-11 09:34:00,67.3,61.3,28.76,North,356,4.9,4.9,81,0.00,,---,0.31,VWS V13.01,2013-06-11 13:34:00,
2013-06-11 09:44:00,68.2,61.8,28.76,North,356,4.9,4.9,80,0.00,,---,0.31,VWS V13.01,2013-06-11 13:44:00,
2013-06-11 09:54:00,68.4,59.8,28.76,North,356,4.9,4.9,74,0.00,,---,0.31,VWS V13.01,2013-06-11 13:54:00,
2013-06-11 09:59:00,68.9,61.4,28.76,North,356,4.9,4.9,77,0.00,,---,0.31,VWS V13.01,2013-06-11 13:59:00,
2013-06-11 10:04:00,69.1,60.5,28.76,North,356,4.9,4.9,74,0.00,,---,0.31,VWS V13.01,2013-06-11 14:04:00,
2013-06-11 10:09:00,69.1,59.7,28.76,North,356,4.9,4.9,72,0.00,,---,0.31,VWS V13.01,2013-06-11 14:09:00,
2013-06-11 10:14:00,69.8,61.9,28.76,North,356,4.9,4.9,76,0.00,,---,0.31,VWS V13.01,2013-06-11 14:14:00,
2013-06-11 10:19:00,69.6,59.0,28.76,North,356,4.9,4.9,69,0.00,,---,0.31,VWS V13.01,2013-06-11 14:19:00,
2013-06-11 10:29:00,70.2,60.3,28.76,North,356,4.9,4.9,71,0.00,,---,0.31,VWS V13.01,2013-06-11 14:29:00,
2013-06-11 10:34:00,70.9,60.2,28.76,North,356,4.9,4.9,69,0.00,,---,0.31,VWS V13.01,2013-06-11 14:34:00,
2013-06-11 10:39:00,71.6,56.1,28.76,North,356,4.9,4.9,58,0.00,,---,0.31,VWS V13.01,2013-06-11 14:39:00,
2013-06-11 10:44:00,72.3,55.8,28.76,North,356,4.9,4.9,56,0.00,,---,0.31,VWS V13.01,2013-06-11 14:44:00,
2013-06-11 10:49:00,72.7,53.5,28.76,North,356,4.9,4.9,51,0.00,,---,0.31,VWS V13.01,2013-06-11 14:49:00,
2013-06-11 10:54:00,72.5,52.3,28.76,North,356,4.9,4.9,49,0.00,,---,0.31,VWS V13.01,2013-06-11 14:54:00,
2013-06-11 10:59:00,72.5,51.2,28.76,North,356,4.9,4.9,47,0.00,,---,0.31,VWS V13.01,2013-06-11 14:59:00,
2013-06-11 11:04:00,73.2,52.4,28.76,North,356,4.9,4.9,48,0.00,,---,0.31,VWS V13.01,2013-06-11 15:04:00,
2013-06-11 11:09:00,73.6,49.7,28.76,North,356,4.9,4.9,43,0.00,,---,0.31,VWS V13.01,2013-06-11 15:09:00,
2013-06-11 11:14:00,73.9,50.1,28.76,North,356,4.9,4.9,43,0.00,,---,0.31,VWS V13.01,2013-06-11 15:14:00,
2013-06-11 11:19:00,74.5,49.3,28.76,North,356,4.9,4.9,41,0.00,,---,0.31,VWS V13.01,2013-06-11 15:19:00,
2013-06-11 11:24:00,74.7,49.4,28.76,North,356,4.9,4.9,41,0.00,,---,0.31,VWS V13.01,2013-06-11 15:24:00,
2013-06-11 11:29:00,74.8,50.2,28.76,North,356,4.9,4.9,42,0.00,,---,0.31,VWS V13.01,2013-06-11 15:29:00,
2013-06-11 11:34:00,75.2,47.9,28.76,North,356,4.9,4.9,38,0.00,,---,0.31,VWS V13.01,2013-06-11 15:34:00,
2013-06-11 11:39:00,75.7,47.7,28.76,North,356,4.9,4.9,37,0.00,,---,0.31,VWS V13.01,2013-06-11 15:39:00,
2013-06-11 11:44:00,75.6,47.5,28.76,North,356,4.9,4.9,37,0.00,,---,0.31,VWS V13.01,2013-06-11 15:44:00,
2013-06-11 11:49:00,75.6,46.0,28.76,North,356,4.9,4.9,35,0.00,,---,0.31,VWS V13.01,2013-06-11 15:49:00,
2013-06-11 11:59:00,76.5,46.0,28.76,North,356,4.9,4.9,34,0.00,,---,0.31,VWS V13.01,2013-06-11 15:59:00,
2013-06-11 12:04:00,76.3,44.3,28.76,North,356,4.9,4.9,32,0.00,,---,0.31,VWS V13.01,2013-06-11 16:04:00,
2013-06-11 12:09:00,76.3,44.3,28.76,North,356,4.9,4.9,32,0.00,,---,0.31,VWS V13.01,2013-06-11 16:09:00,
2013-06-11 12:14:00,76.5,45.2,28.76,North,356,4.9,4.9,33,0.00,,---,0.31,VWS V13.01,2013-06-11 16:14:00,
2013-06-11 12:19:00,76.6,45.4,28.76,North,356,4.9,4.9,33,0.00,,---,0.31,VWS V13.01,2013-06-11 16:19:00,
2013-06-11 12:24:00,77.0,44.9,28.76,North,356,4.9,4.9,32,0.00,,---,0.31,VWS V13.01,2013-06-11 16:24:00,
2013-06-11 12:29:00,77.5,45.4,28.76,North,356,4.9,4.9,32,0.00,,---,0.31,VWS V13.01,2013-06-11 16:29:00,
2013-06-11 12:34:00,78.1,48.2,28.73,North,356,4.9,4.9,35,0.00,,---,0.31,VWS V13.01,2013-06-11 16:34:00,
2013-06-11 12:39:00,78.1,45.8,28.73,North,356,4.9,4.9,32,0.00,,---,0.31,VWS V13.01,2013-06-11 16:39:00,
2013-06-11 12:44:00,78.4,46.2,28.73,North,356,4.9,4.9,32,0.00,,---,0.31,VWS V13.01,2013-06-11 16:44:00,
2013-06-11 12:49:00,78.3,46.0,28.73,North,356,4.9,4.9,32,0.00,,---,0.31,VWS V13.01,2013-06-11 16:49:00,
2013-06-11 12:54:00,77.7,45.5,28.73,North,356,4.9,4.9,32,0.00,,---,0.31,VWS V13.01,2013-06-11 16:54:00,
2013-06-11 12:59:00,78.1,45.0,28.73,North,356,4.9,4.9,31,0.00,,---,0.31,VWS V13.01,2013-06-11 16:59:00,
2013-06-11 13:04:00,78.4,46.2,28.73,North,356,4.9,4.9,32,0.00,,---,0.31,VWS V13.01,2013-06-11 17:04:00,
2013-06-11 13:09:00,78.8,46.5,28.73,North,356,4.9,4.9,32,0.00,,---,0.31,VWS V13.01,2013-06-11 17:09:00,
2013-06-11 13:14:00,79.3,46.1,28.73,North,356,4.9,4.9,31,0.00,,---,0.31,VWS V13.01,2013-06-11 17:14:00,
2013-06-11 13:19:00,79.5,43.6,28.73,North,356,4.9,4.9,28,0.00,,---,0.31,VWS V13.01,2013-06-11 17:19:00,
2013-06-11 13:29:00,79.5,45.4,28.73,North,356,4.9,4.9,30,0.00,,---,0.31,VWS V13.01,2013-06-11 17:29:00,
2013-06-11 13:34:00,78.8,45.6,28.70,North,356,4.9,4.9,31,0.00,,---,0.31,VWS V13.01,2013-06-11 17:34:00,
2013-06-11 13:44:00,79.3,46.1,28.70,North,356,4.9,4.9,31,0.00,,---,0.31,VWS V13.01,2013-06-11 17:44:00,
2013-06-11 13:49:00,80.1,46.7,28.70,North,356,4.9,4.9,31,0.00,,---,0.31,VWS V13.01,2013-06-11 17:49:00,
2013-06-11 13:54:00,79.5,45.4,28.70,North,356,4.9,4.9,30,0.00,,---,0.31,VWS V13.01,2013-06-11 17:54:00,
2013-06-11 13:59:00,79.7,45.6,28.70,North,356,4.9,4.9,30,0.00,,---,0.31,VWS V13.01,2013-06-11 17:59:00,
2013-06-11 14:04:00,79.7,42.8,28.70,North,356,4.9,4.9,27,0.00,,---,0.31,VWS V13.01,2013-06-11 18:04:00,
2013-06-11 14:09:00,80.1,41.1,28.70,North,356,4.9,4.9,25,0.00,,---,0.31,VWS V13.01,2013-06-11 18:09:00,
2013-06-11 14:19:00,80.4,41.4,28.70,North,356,4.9,4.9,25,0.00,,---,0.31,VWS V13.01,2013-06-11 18:19:00,
2013-06-11 14:24:00,80.4,39.3,28.70,North,356,4.9,4.9,23,0.00,,---,0.31,VWS V13.01,2013-06-11 18:24:00,
2013-06-11 14:29:00,80.2,39.1,28.70,North,356,4.9,4.9,23,0.00,,---,0.31,VWS V13.01,2013-06-11 18:29:00,
2013-06-11 14:34:00,79.2,38.2,28.70,North,356,4.9,4.9,23,0.00,,---,0.31,VWS V13.01,2013-06-11 18:34:00,
2013-06-11 14:39:00,78.8,41.0,28.70,North,356,4.9,4.9,26,0.00,,---,0.31,VWS V13.01,2013-06-11 18:39:00,
2013-06-11 14:44:00,78.4,40.8,28.70,North,356,4.9,4.9,26,0.00,,---,0.31,VWS V13.01,2013-06-11 18:44:00,
2013-06-11 14:49:00,79.0,40.2,28.70,North,356,4.9,4.9,25,0.00,,---,0.31,VWS V13.01,2013-06-11 18:49:00,
2013-06-11 14:54:00,79.5,39.6,28.70,North,356,4.9,4.9,24,0.00,,---,0.31,VWS V13.01,2013-06-11 18:54:00,
2013-06-11 14:59:00,79.2,40.3,28.70,North,356,4.9,4.9,25,0.00,,---,0.31,VWS V13.01,2013-06-11 18:59:00,
2013-06-11 15:04:00,79.0,40.2,28.70,North,356,4.9,4.9,25,0.00,,---,0.31,VWS V13.01,2013-06-11 19:04:00,
2013-06-11 15:09:00,78.6,40.9,28.70,North,356,4.9,4.9,26,0.00,,---,0.31,VWS V13.01,2013-06-11 19:09:00,
2013-06-11 15:14:00,78.3,39.6,28.70,North,356,4.9,4.9,25,0.00,,---,0.31,VWS V13.01,2013-06-11 19:14:00,
2013-06-11 15:19:00,77.9,41.3,28.70,North,356,4.9,4.9,27,0.00,,---,0.31,VWS V13.01,2013-06-11 19:19:00,
2013-06-11 15:24:00,77.4,44.4,28.70,North,356,4.9,4.9,31,0.00,,---,0.31,VWS V13.01,2013-06-11 19:24:00,
2013-06-11 15:29:00,74.7,48.1,28.70,North,356,4.9,4.9,39,0.12,,---,0.43,VWS V13.01,2013-06-11 19:29:00,
2013-06-11 15:34:00,72.5,50.6,28.70,North,356,4.9,4.9,46,0.16,,---,0.47,VWS V13.01,2013-06-11 19:34:00,
2013-06-11 15:39:00,71.8,51.6,28.70,North,356,4.9,4.9,49,0.16,,---,0.47,VWS V13.01,2013-06-11 19:39:00,
2013-06-11 15:44:00,71.4,52.9,28.70,North,356,4.9,4.9,52,0.16,,---,0.47,VWS V13.01,2013-06-11 19:44:00,
2013-06-11 15:54:00,71.2,55.2,28.70,North,356,4.9,4.9,57,0.16,,---,0.47,VWS V13.01,2013-06-11 19:54:00,
2013-06-11 15:59:00,71.6,56.5,28.70,North,356,4.9,4.9,59,0.16,,---,0.47,VWS V13.01,2013-06-11 19:59:00,
2013-06-11 16:04:00,74.1,58.4,28.67,North,356,4.9,4.9,58,0.16,,---,0.47,VWS V13.01,2013-06-11 20:04:00,
2013-06-11 16:09:00,74.5,52.4,28.67,North,356,4.9,4.9,46,0.16,,---,0.47,VWS V13.01,2013-06-11 20:09:00,
2013-06-11 16:14:00,74.1,53.8,28.67,North,356,4.9,4.9,49,0.16,,---,0.47,VWS V13.01,2013-06-11 20:14:00,
2013-06-11 16:19:00,73.6,52.7,28.67,North,356,4.9,4.9,48,0.16,,---,0.47,VWS V13.01,2013-06-11 20:19:00,
2013-06-11 16:29:00,73.4,53.7,28.67,North,356,4.9,4.9,50,0.16,,---,0.47,VWS V13.01,2013-06-11 20:29:00,
2013-06-11 16:34:00,73.8,54.5,28.67,North,356,4.9,4.9,51,0.04,,---,0.47,VWS V13.01,2013-06-11 20:34:00,
2013-06-11 16:39:00,76.5,53.6,28.67,North,356,4.9,4.9,45,0.00,,---,0.47,VWS V13.01,2013-06-11 20:39:00,
2013-06-11 16:44:00,78.8,52.5,28.67,North,356,4.9,4.9,40,0.00,,---,0.47,VWS V13.01,2013-06-11 20:44:00,
2013-06-11 16:49:00,80.6,47.2,28.67,North,356,4.9,4.9,31,0.00,,---,0.47,VWS V13.01,2013-06-11 20:49:00,
2013-06-11 16:54:00,82.2,47.7,28.67,North,356,4.9,4.9,30,0.00,,---,0.47,VWS V13.01,2013-06-11 20:54:00,
2013-06-11 16:59:00,81.7,48.1,28.67,North,356,4.9,4.9,31,0.00,,---,0.47,VWS V13.01,2013-06-11 20:59:00,
2013-06-11 17:04:00,79.7,47.3,28.67,North,356,4.9,4.9,32,0.00,,---,0.47,VWS V13.01,2013-06-11 21:04:00,
2013-06-11 17:09:00,77.9,48.1,28.67,North,356,4.9,4.9,35,0.00,,---,0.47,VWS V13.01,2013-06-11 21:09:00,
2013-06-11 17:14:00,76.5,49.0,28.67,North,356,4.9,4.9,38,0.00,,---,0.47,VWS V13.01,2013-06-11 21:14:00,
2013-06-11 17:19:00,75.4,50.1,28.64,North,356,4.9,4.9,41,0.00,,---,0.47,VWS V13.01,2013-06-11 21:19:00,
2013-06-11 17:24:00,74.7,51.9,28.64,North,356,4.9,4.9,45,0.00,,---,0.47,VWS V13.01,2013-06-11 21:24:00,
2013-06-11 17:29:00,74.1,52.6,28.64,North,356,4.9,4.9,47,0.00,,---,0.47,VWS V13.01,2013-06-11 21:29:00,
2013-06-11 17:34:00,72.7,56.1,28.67,North,356,4.9,4.9,56,0.31,,---,0.79,VWS V13.01,2013-06-11 21:34:00,
2013-06-11 17:39:00,72.0,54.9,28.67,North,356,4.9,4.9,55,0.31,,---,0.79,VWS V13.01,2013-06-11 21:39:00,
2013-06-11 17:44:00,71.8,56.2,28.67,North,356,4.9,4.9,58,0.31,,---,0.79,VWS V13.01,2013-06-11 21:44:00,
2013-06-11 17:49:00,72.0,54.9,28.67,North,356,4.9,4.9,55,0.31,,---,0.79,VWS V13.01,2013-06-11 21:49:00,
2013-06-11 17:54:00,72.3,54.8,28.67,North,356,4.9,4.9,54,0.31,,---,0.79,VWS V13.01,2013-06-11 21:54:00,
2013-06-11 17:59:00,72.9,52.6,28.67,North,356,4.9,4.9,49,0.31,,---,0.79,VWS V13.01,2013-06-11 21:59:00,
2013-06-11 18:04:00,73.0,52.2,28.67,North,356,4.9,4.9,48,0.31,,---,0.79,VWS V13.01,2013-06-11 22:04:00,
2013-06-11 18:09:00,72.9,52.0,28.67,North,356,4.9,4.9,48,0.31,,---,0.79,VWS V13.01,2013-06-11 22:09:00,
2013-06-11 18:19:00,72.5,50.6,28.70,North,356,4.9,4.9,46,0.31,,---,0.79,VWS V13.01,2013-06-11 22:19:00,
2013-06-11 18:24:00,72.3,51.0,28.70,North,356,4.9,4.9,47,0.31,,---,0.79,VWS V13.01,2013-06-11 22:24:00,
2013-06-11 18:29:00,72.1,51.4,28.70,North,356,4.9,4.9,48,0.31,,---,0.79,VWS V13.01,2013-06-11 22:29:00,
2013-06-11 18:34:00,71.6,51.5,28.70,North,356,4.9,4.9,49,0.31,,---,0.79,VWS V13.01,2013-06-11 22:34:00,
2013-06-11 18:39:00,71.2,53.2,28.70,North,356,4.9,4.9,53,0.00,,---,0.79,VWS V13.01,2013-06-11 22:39:00,
2013-06-11 18:44:00,71.2,52.7,28.70,North,356,4.9,4.9,52,0.00,,---,0.79,VWS V13.01,2013-06-11 22:44:00,
2013-06-11 18:49:00,71.4,53.4,28.70,North,356,4.9,4.9,53,0.00,,---,0.79,VWS V13.01,2013-06-11 22:49:00,
2013-06-11 18:54:00,71.4,52.4,28.70,North,356,4.9,4.9,51,0.00,,---,0.79,VWS V13.01,2013-06-11 22:54:00,
2013-06-11 18:59:00,70.9,49.7,28.70,North,356,4.9,4.9,47,0.00,,---,0.79,VWS V13.01,2013-06-11 22:59:00,
2013-06-11 19:09:00,70.7,46.5,28.70,North,356,4.9,4.9,42,0.00,,---,0.79,VWS V13.01,2013-06-11 23:09:00,
2013-06-11 19:14:00,70.7,46.5,28.70,North,356,4.9,4.9,42,0.00,,---,0.79,VWS V13.01,2013-06-11 23:14:00,
2013-06-11 19:19:00,70.5,46.3,28.70,North,356,4.9,4.9,42,0.00,,---,0.79,VWS V13.01,2013-06-11 23:19:00,
2013-06-11 19:24:00,70.3,46.2,28.70,North,356,4.9,4.9,42,0.00,,---,0.79,VWS V13.01,2013-06-11 23:24:00,
2013-06-11 19:29:00,70.2,46.0,28.70,North,356,4.9,4.9,42,0.00,,---,0.79,VWS V13.01,2013-06-11 23:29:00,
2013-06-11 19:34:00,70.2,46.0,28.70,North,356,4.9,4.9,42,0.00,,---,0.79,VWS V13.01,2013-06-11 23:34:00,
2013-06-11 19:39:00,70.0,46.5,28.70,North,356,4.9,4.9,43,0.00,,---,0.79,VWS V13.01,2013-06-11 23:39:00,
2013-06-11 19:44:00,69.6,46.8,28.70,North,356,4.9,4.9,44,0.00,,---,0.79,VWS V13.01,2013-06-11 23:44:00,
2013-06-11 19:49:00,69.4,46.0,28.70,North,356,4.9,4.9,43,0.00,,---,0.79,VWS V13.01,2013-06-11 23:49:00,
2013-06-11 19:54:00,69.4,47.2,28.70,North,356,4.9,4.9,45,0.00,,---,0.79,VWS V13.01,2013-06-11 23:54:00,
2013-06-11 19:59:00,69.3,47.0,28.70,North,356,4.9,4.9,45,0.00,,---,0.79,VWS V13.01,2013-06-11 23:59:00,
2013-06-11 20:04:00,69.1,46.9,28.70,North,356,4.9,4.9,45,0.00,,---,0.79,VWS V13.01,2013-06-12 00:04:00,
2013-06-11 20:09:00,68.7,46.5,28.70,North,356,4.9,4.9,45,0.00,,---,0.79,VWS V13.01,2013-06-12 00:09:00,
2013-06-11 20:14:00,68.7,46.0,28.70,North,356,4.9,4.9,44,0.00,,---,0.79,VWS V13.01,2013-06-12 00:14:00,
2013-06-11 20:19:00,68.7,44.7,28.70,North,356,4.9,4.9,42,0.00,,---,0.79,VWS V13.01,2013-06-12 00:19:00,
2013-06-11 20:24:00,68.7,44.7,28.70,North,356,4.9,4.9,42,0.00,,---,0.79,VWS V13.01,2013-06-12 00:24:00,
2013-06-11 20:29:00,68.7,44.7,28.70,North,356,4.9,4.9,42,0.00,,---,0.79,VWS V13.01,2013-06-12 00:29:00,
2013-06-11 20:34:00,68.5,44.6,28.70,North,356,4.9,4.9,42,0.00,,---,0.79,VWS V13.01,2013-06-12 00:34:00,
2013-06-11 20:39:00,68.5,44.6,28.70,North,356,4.9,4.9,42,0.00,,---,0.79,VWS V13.01,2013-06-12 00:39:00,
2013-06-11 20:44:00,68.5,43.3,28.70,North,356,4.9,4.9,40,0.00,,---,0.79,VWS V13.01,2013-06-12 00:44:00,
2013-06-11 20:49:00,68.4,45.0,28.70,North,356,4.9,4.9,43,0.00,,---,0.79,VWS V13.01,2013-06-12 00:49:00,
2013-06-11 20:54:00,68.4,43.8,28.70,North,356,4.9,4.9,41,0.00,,---,0.79,VWS V13.01,2013-06-12 00:54:00,
2013-06-11 20:59:00,68.2,43.6,28.70,North,356,4.9,4.9,41,0.00,,---,0.79,VWS V13.01,2013-06-12 00:59:00,
2013-06-11 21:04:00,68.4,43.8,28.73,North,356,4.9,4.9,41,0.00,,---,0.79,VWS V13.01,2013-06-12 01:04:00,
2013-06-11 21:09:00,68.2,43.0,28.73,North,356,4.9,4.9,40,0.00,,---,0.79,VWS V13.01,2013-06-12 01:09:00,
2013-06-11 21:14:00,68.0,42.1,28.73,North,356,4.9,4.9,39,0.00,,---,0.79,VWS V13.01,2013-06-12 01:14:00,
2013-06-11 21:19:00,68.2,41.6,28.70,North,356,4.9,4.9,38,0.00,,---,0.79,VWS V13.01,2013-06-12 01:19:00,
2013-06-11 21:24:00,68.2,42.3,28.70,North,356,4.9,4.9,39,0.00,,---,0.79,VWS V13.01,2013-06-12 01:24:00,
2013-06-11 21:29:00,68.2,41.6,28.70,North,356,4.9,4.9,38,0.00,,---,0.79,VWS V13.01,2013-06-12 01:29:00,
2013-06-11 21:34:00,68.2,41.6,28.73,North,356,4.9,4.9,38,0.00,,---,0.79,VWS V13.01,2013-06-12 01:34:00,
2013-06-11 21:39:00,68.0,41.5,28.73,North,356,4.9,4.9,38,0.00,,---,0.79,VWS V13.01,2013-06-12 01:39:00,
2013-06-11 21:44:00,67.8,42.6,28.73,North,356,4.9,4.9,40,0.00,,---,0.79,VWS V13.01,2013-06-12 01:44:00,
2013-06-11 21:49:00,67.8,42.0,28.73,North,356,4.9,4.9,39,0.00,,---,0.79,VWS V13.01,2013-06-12 01:49:00,
2013-06-11 21:54:00,67.8,42.0,28.73,North,356,4.9,4.9,39,0.00,,---,0.79,VWS V13.01,2013-06-12 01:54:00,
2013-06-11 21:59:00,67.6,41.8,28.73,North,356,4.9,4.9,39,0.00,,---,0.79,VWS V13.01,2013-06-12 01:59:00,
2013-06-11 22:04:00,67.8,42.0,28.73,North,356,4.9,4.9,39,0.00,,---,0.79,VWS V13.01,2013-06-12 02:04:00,
2013-06-11 22:09:00,67.6,41.2,28.73,North,356,4.9,4.9,38,0.00,,---,0.79,VWS V13.01,2013-06-12 02:09:00,
2013-06-11 22:14:00,67.6,41.8,28.73,North,356,4.9,4.9,39,0.00,,---,0.79,VWS V13.01,2013-06-12 02:14:00,
2013-06-11 22:19:00,67.5,41.7,28.73,North,356,4.9,4.9,39,0.00,,---,0.79,VWS V13.01,2013-06-12 02:19:00,
2013-06-11 22:24:00,67.3,40.8,28.73,North,356,4.9,4.9,38,0.00,,---,0.79,VWS V13.01,2013-06-12 02:24:00,
2013-06-11 22:29:00,67.3,40.1,28.73,North,356,4.9,4.9,37,0.00,,---,0.79,VWS V13.01,2013-06-12 02:29:00,
2013-06-11 22:34:00,67.3,38.7,28.73,North,356,4.9,4.9,35,0.00,,---,0.79,VWS V13.01,2013-06-12 02:34:00,
2013-06-11 22:39:00,67.3,38.7,28.73,North,356,4.9,4.9,35,0.00,,---,0.79,VWS V13.01,2013-06-12 02:39:00,
2013-06-11 22:44:00,67.1,38.6,28.73,North,356,4.9,4.9,35,0.00,,---,0.79,VWS V13.01,2013-06-12 02:44:00,
2013-06-11 22:49:00,67.1,38.6,28.73,North,356,4.9,4.9,35,0.00,,---,0.79,VWS V13.01,2013-06-12 02:49:00,
2013-06-11 22:54:00,66.9,37.7,28.73,North,356,4.9,4.9,34,0.00,,---,0.79,VWS V13.01,2013-06-12 02:54:00,
2013-06-11 22:59:00,66.9,36.9,28.73,North,356,4.9,4.9,33,0.00,,---,0.79,VWS V13.01,2013-06-12 02:59:00,
2013-06-11 23:04:00,66.9,36.9,28.73,North,356,4.9,4.9,33,0.00,,---,0.79,VWS V13.01,2013-06-12 03:04:00,
2013-06-11 23:09:00,66.9,36.9,28.73,North,356,4.9,4.9,33,0.00,,---,0.79,VWS V13.01,2013-06-12 03:09:00,
2013-06-11 23:14:00,66.9,36.9,28.73,North,356,4.9,4.9,33,0.00,,---,0.79,VWS V13.01,2013-06-12 03:14:00,
2013-06-11 23:24:00,66.7,36.0,28.73,North,356,4.9,4.9,32,0.00,,---,0.79,VWS V13.01,2013-06-12 03:24:00,
2013-06-11 23:29:00,66.7,36.0,28.73,North,356,4.9,4.9,32,0.00,,---,0.79,VWS V13.01,2013-06-12 03:29:00,
2013-06-11 23:34:00,66.6,35.8,28.73,North,356,4.9,4.9,32,0.00,,---,0.79,VWS V13.01,2013-06-12 03:34:00,
2013-06-11 23:39:00,66.4,35.7,28.73,North,356,4.9,4.9,32,0.00,,---,0.79,VWS V13.01,2013-06-12 03:39:00,
2013-06-11 23:44:00,66.4,36.4,28.73,North,356,4.9,4.9,33,0.00,,---,0.79,VWS V13.01,2013-06-12 03:44:00,
2013-06-11 23:49:00,66.2,36.3,28.73,North,356,4.9,4.9,33,0.00,,---,0.79,VWS V13.01,2013-06-12 03:49:00,
2013-06-11 23:54:00,66.2,36.3,28.73,North,356,4.9,4.9,33,0.00,,---,0.79,VWS V13.01,2013-06-12 03:54:00,
2013-06-11 23:59:00,66.0,36.1,28.73,North,356,4.9,4.9,33,0.00,,---,0.00,VWS V13.01,2013-06-12 03:59:00,